Location: Black Skies Observatory
(44.7549°N, 79.7179°W)
Time: 14:18:02
(UTC-05:00)

Envisat - Pass Details

Date: 09 November 2020
Orbit: 764 x 766 km, 98.1° (Epoch: 01 December)

Event Time Altitude Azimuth Distance (km) Brightness Sun altitude
Rises 05:36:47 0° 21° (NNE) 3,241 6.4 -16.5°
Reaches altitude 10° 05:39:18 10° 31° (NNE) 2,310 5.8 -16.0°
Maximum altitude 05:43:56 34° 96° (E) 1,238 4.8 -15.2°
Drops below altitude 10° 05:48:31 10° 161° (SSE) 2,293 5.8 -14.4°
Sets 05:51:00 0° 171° (S) 3,215 6.5 -14.0°
